User: anonymous   Login
Location: Brockett
(40.8000°S, 175.4500°E)
Time: 03:24:56
(UTC+00:00)
Language:

ATLAS 5 CENTAUR R/B - Orbit

View from above orbital plane
View from above orbital plane
View from above satellite
View from above satellite

Ground track
Ground track

The orbit data is extracted from the following two-line orbital elements,

1 31702U 07027B   24287.77666355  .00014191  00000-0  10767-2 0  9996
2 31702  63.3248 298.3800 0519721  34.3036 329.0470 14.33256243 22502
Epoch (UTC): 13 October 2024 18:38:23
Eccentricity: 0.0519721
inclination: 63.3248°
perigee height: 409 km
apogee height: 1153 km
right ascension of ascending node: 298.3800°
argument of perigee: 34.3036°
revolutions per day: 14.33256243
mean anomaly at epoch: 329.0470°
orbit number at epoch: 2250

The dashed part of the orbit path shows where the satellite is in the earth's shadow,  

DLR